This is the latest recevied weather packets stored in our database for station/object ED1ZAI-13. If no packets are shown the sender has not sent any weather packets the latest 10 day(s).
| Time | Temp. | Humidity | Pressure | Rain* | Wind** | Luminosity | Snow |
|---|---|---|---|---|---|---|---|
| 1788195462 | 26.67° C | 30% | 1018.8 hPa | - | - | - | - |
| 1788194862 | 27.22° C | 28% | 1018.7 hPa | - | - | - | - |
| 1788194262 | 27.22° C | 28% | 1018.8 hPa | - | - | - | - |
| 1788193662 | 31.67° C | 20% | 1018.7 hPa | - | - | - | - |
| 1788193063 | 32.22° C | 20% | 1018.8 hPa | - | - | - | - |
| 1788192463 | 32.22° C | 19% | 1018.9 hPa | - | - | - | - |
| 1788191863 | 35° C | 16% | 1019 hPa | - | - | - | - |
| 1788191262 | 34.44° C | 16% | 1019 hPa | - | - | - | - |
| 1788190662 | 32.78° C | 19% | 1019.1 hPa | - | - | - | - |
| 1788190062 | 35° C | 17% | 1019.3 hPa | - | - | - | - |
| 1788189462 | 33.89° C | 19% | 1019.3 hPa | - | - | - | - |
| 1787864333 | 14.44° C | 63% | 1007.1 hPa | - | - | - | - |
| 1787863733 | 15° C | 58% | 1009.5 hPa | - | - | - | - |
| 1787863132 | 15° C | 56% | 1009.3 hPa | - | - | - | - |
| 1787862532 | 15° C | 55% | 1009.7 hPa | - | - | - | - |
| 1787861932 | 15.56° C | 53% | 1010.2 hPa | - | - | - | - |
| 1787861333 | 15.56° C | 52% | 1010.4 hPa | - | - | - | - |
| 1787860733 | 15.56° C | 54% | 1009.7 hPa | - | - | - | - |
| 1787860133 | 16.11° C | 50% | 1010.8 hPa | - | - | - | - |
| 1787859533 | 16.67° C | 49% | 1010.8 hPa | - | - | - | - |
| 1787858932 | 16.11° C | 48% | 1011 hPa | - | - | - | - |
| 1787858333 | 16.67° C | 49% | 1010.4 hPa | - | - | - | - |
| 1787857733 | 16.67° C | 49% | 1010.3 hPa | - | - | - | - |
| 1787857132 | 16.67° C | 48% | 1010.3 hPa | - | - | - | - |
| 1787856532 | 17.22° C | 47% | 1010.3 hPa | - | - | - | - |
* Rain since midnight (hover to see other rain measurements)
** Current wind speed in m/s (hover to see current wind gust speed)